P/2019 A1 ( PanSTARRS )

Japanese version
Home page
Updated on August 15, 2020

---------------------------------------------------------------------

* Profile

Discovery Date January 3, 2019
Magnitude 20.5 mag
Discoverer Pan-STARRS 1 telescope (Haleakala)

* Pictures

* Orbital Elements

Epoch 2018 Oct. 9.0 TT = JDT 2458400.5
T 2018 Oct. 11.05065 TT                                 MPCW
q   2.2116658            (2000.0)            P               Q
n   0.08479712     Peri.  150.84895     -0.23779256     -0.95529008
a   5.1311571      Node   312.29968     +0.83878551     -0.11073791
e   0.5689733      Incl.   13.74311     +0.48978931     -0.27414954
P  11.62
From 59 observations 2018 Dec. 4-2019 Feb. 28, mean residual 0".4.

* Magnitudes Graph

        m1 = 14.5 + 5 log d + 10.0 log r

---------------------------------------------------------------------

The orbital elements are published on M.P.E.C. 2019-J142.
The magnitudes graphs are made with Comet for Windows.

---------------------------------------------------------------------

Copyright(C) Seiichi Yoshida (comet@aerith.net). All rights reserved.